[[{"header":{"parameterUnit":"m.s-1","parameterCategory":1,"la1":30.2991,"la2":30.254,"lo1":-89.0895,"lo2":-89.0444,"dy":0.0017,"dx":0.0017,"nx":28,"ny":28,"refTime":"2024-05-11T03:00:00:Z","depth":0,"parameterNumber":2,"parameterNumberName":"U-component_of_WINDS"},"data":[0,0,0,0,0,0,0,0,0,0,0,0,0,0,0,0,0,0,0,0,0,0,0,0,0,0,0,0,0,0,0,0,0,0,0,0,0,0,0,0,0,0,0,0,0,0,0,0,0,0,0,0,0,0,0,0,0,0,0.2449,0.245,0,0.255,0.2551,0.2552,0.2565,0.2564,0.2563,0.2562,0.2668,0.2672,0.2676,0,0,0,0,0,0,0,0,0,0,0,0,0,0.227,0.2273,0.2449,0.245,0.2451,0.255,0.2551,0.2552,0.2565,0.2564,0.2563,0.2562,0.2667,0.2672,0.2676,0,0,0,0,0,0,0,0,0,0,0,0,0,0.2357,0.2275,0.2449,0.247,0.2472,0.2549,0.2551,0.2553,0.2565,0.2564,0.2562,0.2561,0.2666,0.2671,0.2677,0.2741,0,0,0.2694,0.2696,0,0,0,0,0,0,0,0,0.2352,0.2364,0.2465,0.2468,0.2472,0.2543,0.2527,0.2616,0.2566,0.253,0.2562,0.256,0.2628,0.2637,0.2659,0.2746,0.275,0.2694,0.2698,0.27,0.2702,0,0,0,0,0,0,0,0.2346,0.236,0.2489,0.2467,0.2471,0.2475,0.2486,0.2544,0.2586,0.2533,0.2534,0.2546,0.263,0.2654,0.2662,0.2752,0.2694,0.2699,0.2703,0.2705,0.2896,0.2897,0,0,0,0,0,0,0.2336,0.2354,0.2486,0.2492,0.2407,0.2479,0.2491,0.2522,0.2586,0.2594,0.2547,0.2546,0.2645,0.2655,0.2665,0.2744,0.27,0.2705,0.2709,0.2894,0.2896,0.2898,0,0,0,0,0,0,0.2332,0.2348,0.2482,0.2424,0.2441,0.2484,0.2518,0.2525,0.2548,0.2596,0.2604,0.2564,0.2644,0.2657,0.2721,0.2748,0.2708,0.2713,0.2892,0.2895,0.2897,0.2902,0,0,0,0,0,0,0.2327,0.2346,0.237,0.2424,0.2444,0.2535,0.252,0.2528,0.2558,0.2557,0.2614,0.2622,0.2644,0.2713,0.2727,0.2755,0.2717,0.289,0.2893,0.2896,0.2899,0.2904,0.2908,0,0,0,0,0,0.232,0.2368,0.2371,0.2387,0.2475,0.2537,0.2548,0.2572,0.256,0.2585,0.2615,0.262,0.2743,0.2719,0.2735,0.2765,0.2888,0.2892,0.2896,0.2897,0.2903,0.2908,0,0,0,0,0,0,0.2317,0.2376,0.238,0.2446,0.2486,0.2539,0.2571,0.2577,0.2623,0.2621,0.2649,0.2662,0.2724,0.2752,0.2725,0.283,0.2815,0.2822,0.281,0.2816,0.282,0.2812,0.2722,0,0,0,0,0,0.2324,0.2369,0.2418,0.2471,0.2491,0.2528,0.2555,0.257,0.2613,0.2631,0.2666,0.2709,0.2757,0.2788,0.2835,0.2904,0.2916,0.2932,0.2936,0.294,0.2945,0.2983,0.2991,0.291,0.291,0.291,0,0,0.2339,0.2376,0.2403,0.2472,0.2505,0.2551,0.2542,0.2591,0.2626,0.2639,0.2701,0.2728,0.2778,0.2844,0.2875,0.2868,0.297,0.2945,0.2947,0.2951,0.2988,0.2996,0.3002,0.2913,0.2913,0.2912,0,0,0.2389,0.2422,0.247,0.2503,0.2553,0.2577,0.2588,0.264,0.2658,0.2721,0.2731,0.2774,0.2856,0.2891,0.2919,0.2983,0.2989,0.2998,0.302,0.3057,0.3063,0.3069,0.3091,0.3099,0.3003,0.3003,0.3003,0,0.2402,0.2471,0.2494,0.2543,0.2573,0.2586,0.2635,0.2667,0.2729,0.275,0.2742,0.2845,0.288,0.2954,0.2969,0.2992,0.3007,0.2991,0.306,0.3066,0.3072,0.3093,0.3102,0.3004,0.3004,0.3004,0.3004,0,0.2483,0.2531,0.2564,0.2623,0.2657,0.2706,0.2738,0.277,0.2782,0.2807,0.287,0.2912,0.2967,0.2986,0.2999,0.3063,0.3057,0.3054,0.3039,0.308,0.3101,0.3109,0.3005,0.3005,0.3005,0.3004,0,0,0.2534,0.2605,0.2617,0.2644,0.2699,0.2737,0.2787,0.284,0.2867,0.291,0.2953,0.3022,0.302,0.3052,0.3069,0.3101,0.3148,0.3094,0.3096,0.3102,0.322,0.3221,0.323,0.3152,0.3154,0.3156,0.3216,0,0.259,0.2678,0.2701,0.2775,0.282,0.2833,0.2877,0.2916,0.2941,0.2983,0.3011,0.3059,0.3052,0.3072,0.3104,0.3135,0.3172,0.3131,0.3193,0.3194,0.3179,0.3241,0.3243,0.3298,0.3224,0.3226,0.3227,0,0.2667,0.2711,0.2789,0.2839,0.2859,0.2897,0.2948,0.2988,0.3033,0.3049,0.3084,0.3098,0.3151,0.3134,0.3207,0.3179,0.3206,0.3225,0.3227,0.3233,0.3212,0.3248,0.3316,0.3324,0.324,0.3239,0.3238,0,0.2695,0.2774,0.2831,0.2854,0.2913,0.294,0.2966,0.301,0.304,0.3085,0.3105,0.3156,0.3183,0.3223,0.325,0.3235,0.3321,0.3306,0.3336,0.3336,0.3353,0.3352,0.3425,0.3372,0.3372,0.3371,0.3371,0,0.2755,0.2803,0.2844,0.2879,0.2933,0.296,0.3013,0.304,0.3078,0.3119,0.3135,0.3173,0.3207,0.3251,0.3273,0.333,0.3343,0.3357,0.3362,0.3355,0.3353,0.3373,0.3369,0.3374,0.3373,0.3373,0.3372,0,0.2795,0.2825,0.2888,0.2939,0.2953,0.299,0.3034,0.3069,0.3095,0.3147,0.316,0.3201,0.3252,0.3284,0.335,0.3364,0.3427,0.3432,0.3412,0.3414,0.3442,0.3439,0.353,0.3543,0.3481,0.3482,0.3482,0,0.283,0.2867,0.2922,0.295,0.2976,0.3022,0.3053,0.3081,0.3113,0.3167,0.3195,0.3248,0.3291,0.3373,0.3409,0.3459,0.3464,0.3493,0.3472,0.3464,0.3464,0.3461,0.3465,0.3496,0.3496,0.3497,0.3497,0,0.2891,0.2903,0.2947,0.2996,0.3032,0.3072,0.3112,0.3134,0.3169,0.3204,0.3257,0.329,0.3357,0.3409,0.3463,0.3491,0.35,0.3504,0.3513,0.3506,0.3492,0.3499,0.342,0.3501,0.3501,0.3501,0.35,0.35,0.2929,0.2962,0.3006,0.3054,0.3087,0.3123,0.3159,0.3188,0.3232,0.3288,0.3302,0.3357,0.3402,0.3474,0.3504,0.3548,0.3543,0.3557,0.3561,0.3563,0.3564,0.3486,0.3558,0.3558,0.3558,0.3557,0.3557,0,0.2989,0.3018,0.3062,0.3116,0.3154,0.3159,0.3204,0.3235,0.3283,0.3323,0.3366,0.3426,0.3476,0.3516,0.3568,0.3595,0.3601,0.3608,0.3606,0.3612,0.3565,0.3551,0.3603,0.3603,0.3603,0.3603,0.3603,0.3603,0.3025,0.3081,0.3099,0.3171,0.32,0.3253,0.3278,0.3313,0.3345,0.3411,0.3453,0.3478,0.3518,0.3573,0.362,0.363,0.3648,0.3655,0.3666,0.3621,0.3616,0.3611,0.3598,0.3659,0.3659,0.3709,0.371,0.371]},{"header":{"parameterUnit":"m.s-1","parameterCategory":1,"la1":30.2991,"la2":30.254,"lo1":-89.0895,"lo2":-89.0444,"dy":0.0017,"dx":0.0017,"nx":28,"ny":28,"refTime":"2024-05-11T03:00:00:Z","depth":0,"parameterNumber":3,"parameterNumberName":"V-component_of_WINDS"},"data":[0,0,0,0,0,0,0,0,0,0,0,0,0,0,0,0,0,0,0,0,0,0,0,0,0,0,0,0,0,0,0,0,0,0,0,0,0,0,0,0,0,0,0,0,0,0,0,0,0,0,0,0,0,0,0,0,0,0,1.1226,1.1225,0,1.1076,1.1075,1.1073,1.0936,1.0935,1.0933,1.0931,1.0778,1.0775,1.0773,0,0,0,0,0,0,0,0,0,0,0,0,0,1.1394,1.1391,1.1227,1.1225,1.1223,1.1077,1.1075,1.1073,1.0937,1.0935,1.0933,1.0931,1.0779,1.0776,1.0773,0,0,0,0,0,0,0,0,0,0,0,0,0,1.129,1.1391,1.1227,1.1137,1.1128,1.1077,1.1075,1.1072,1.0937,1.0935,1.0932,1.093,1.078,1.0776,1.0772,1.0798,0,0,1.0761,1.0759,0,0,0,0,0,0,0,0,1.1296,1.1284,1.1152,1.1143,1.1133,1.1022,1.1077,1.098,1.0938,1.1009,1.0931,1.0929,1.0861,1.0851,1.0828,1.0791,1.0784,1.076,1.0758,1.0756,1.0755,0,0,0,0,0,0,0,1.1304,1.129,1.1167,1.1151,1.1139,1.1104,1.1087,1.1058,1.0951,1.1003,1.0993,1.0977,1.0855,1.0832,1.0823,1.0782,1.076,1.0757,1.0755,1.0753,1.0754,1.0757,0,0,0,0,0,0,1.1325,1.1297,1.1172,1.1163,1.121,1.1103,1.1084,1.106,1.0951,1.0932,1.0979,1.0971,1.084,1.0828,1.0817,1.0837,1.0756,1.0753,1.075,1.0752,1.0755,1.0757,0,0,0,0,0,0,1.1329,1.1315,1.1178,1.1227,1.1207,1.1103,1.1078,1.1059,1.1035,1.0933,1.0913,1.0975,1.0837,1.0823,1.0803,1.083,1.0751,1.0747,1.0749,1.0753,1.0756,1.0879,0,0,0,0,0,0,1.1334,1.1317,1.1327,1.1228,1.1205,1.1167,1.108,1.1058,1.1029,1.1017,1.0924,1.0906,1.0834,1.0809,1.0799,1.0823,1.0745,1.0746,1.0751,1.0755,1.0872,1.0886,1.0899,0,0,0,0,0,1.1341,1.1368,1.1328,1.1313,1.1214,1.1169,1.1155,1.1072,1.1032,1.1039,1.0973,1.0909,1.0829,1.0809,1.0796,1.0819,1.0744,1.075,1.0755,1.0866,1.0884,1.0898,0,0,0,0,0,0,1.1473,1.1354,1.1307,1.1304,1.1247,1.1146,1.1153,1.1094,1.1048,1.1039,1.0938,1.0918,1.0909,1.0862,1.0841,1.0836,1.0778,1.0781,1.0867,1.0882,1.0896,1.0906,1.0741,0,0,0,0,0,1.1502,1.1475,1.1372,1.1379,1.1353,1.1259,1.1236,1.1176,1.1114,1.1089,1.1022,1.0964,1.0924,1.0901,1.0861,1.0865,1.0841,1.0875,1.0888,1.09,1.0903,1.0898,1.0911,1.0775,1.0775,1.0775,0,0,1.1561,1.1492,1.1482,1.1404,1.1353,1.1326,1.1239,1.1216,1.1194,1.1086,1.1061,1.1011,1.0938,1.093,1.0923,1.0891,1.0935,1.0906,1.0916,1.0913,1.0905,1.0918,1.0929,1.0778,1.0778,1.0777,0,0,1.1654,1.1601,1.1598,1.1549,1.1473,1.141,1.141,1.1316,1.1278,1.1252,1.1169,1.1142,1.1079,1.103,1.0997,1.107,1.1007,1.1059,1.1127,1.1124,1.1135,1.1144,1.1166,1.1176,1.1063,1.1063,1.1064,0,1.1737,1.1694,1.1605,1.1585,1.1552,1.1452,1.1448,1.1405,1.132,1.1299,1.1264,1.118,1.1125,1.1102,1.1119,1.1097,1.1092,1.1068,1.114,1.1148,1.1155,1.1176,1.1185,1.107,1.1069,1.1069,1.1068,0,1.1797,1.1769,1.1776,1.1695,1.1663,1.1652,1.156,1.1539,1.1482,1.1423,1.1396,1.1326,1.1268,1.1259,1.1204,1.1227,1.1209,1.116,1.1098,1.1176,1.1193,1.1201,1.1079,1.1077,1.1075,1.1073,0,0,1.1969,1.1838,1.1842,1.1802,1.171,1.1686,1.167,1.1612,1.1593,1.1538,1.152,1.1468,1.142,1.1382,1.1321,1.1319,1.1376,1.1268,1.1265,1.1288,1.1393,1.1429,1.144,1.1336,1.1337,1.1338,1.1398,0,1.2044,1.2008,1.1927,1.1915,1.1886,1.179,1.1775,1.1716,1.166,1.1626,1.1564,1.1527,1.1468,1.1444,1.1438,1.1371,1.1396,1.1366,1.1315,1.1315,1.1333,1.1449,1.1488,1.1548,1.1405,1.1406,1.1407,0,1.2127,1.2076,1.2061,1.1968,1.1953,1.1941,1.1879,1.185,1.1781,1.1739,1.1697,1.1629,1.1604,1.155,1.1513,1.1494,1.1469,1.1433,1.1433,1.1423,1.1364,1.1439,1.1566,1.1574,1.1417,1.1416,1.1416,0,1.2249,1.2177,1.2158,1.2127,1.202,1.2013,1.1967,1.1896,1.1866,1.1813,1.1791,1.1737,1.1706,1.1665,1.1583,1.1552,1.1554,1.1494,1.1517,1.1519,1.152,1.152,1.1641,1.151,1.1509,1.1509,1.1509,0,1.2339,1.2333,1.221,1.2199,1.2188,1.2095,1.2087,1.2033,1.197,1.1945,1.186,1.1838,1.1733,1.1698,1.1635,1.1612,1.16,1.1564,1.1546,1.1569,1.1574,1.1549,1.1542,1.1512,1.1511,1.1511,1.151,0,1.2473,1.2391,1.2363,1.2263,1.2237,1.2234,1.2147,1.2131,1.2069,1.2038,1.2026,1.1929,1.1883,1.1798,1.173,1.1687,1.1676,1.1648,1.1699,1.1688,1.1715,1.1712,1.1821,1.1829,1.1697,1.1699,1.17,0,1.2535,1.2527,1.2426,1.2402,1.236,1.2324,1.2292,1.22,1.217,1.2089,1.2083,1.2031,1.1984,1.1915,1.1838,1.1784,1.1752,1.1794,1.1743,1.1766,1.1748,1.1748,1.1745,1.1805,1.1807,1.1808,1.181,0,1.2651,1.261,1.2567,1.251,1.2473,1.2424,1.237,1.2356,1.2251,1.2222,1.2174,1.2137,1.2066,1.2014,1.1949,1.1901,1.1837,1.1826,1.1828,1.185,1.1879,1.186,1.1727,1.1824,1.1822,1.1821,1.182,1.182,1.2748,1.2735,1.2661,1.2615,1.2565,1.2516,1.2494,1.243,1.2388,1.2322,1.2271,1.2227,1.2155,1.2061,1.2017,1.198,1.195,1.1953,1.1954,1.1955,1.1963,1.1888,1.1968,1.1967,1.1967,1.1966,1.1966,0,1.2856,1.2804,1.2763,1.2689,1.2652,1.2596,1.2533,1.2506,1.2467,1.2407,1.2362,1.2305,1.2254,1.2173,1.2115,1.2101,1.207,1.2088,1.2087,1.2076,1.1995,1.1997,1.2114,1.2114,1.2114,1.2114,1.2114,1.2114,1.2909,1.2883,1.2834,1.2782,1.2729,1.2685,1.2653,1.2606,1.2557,1.2498,1.2455,1.2402,1.2332,1.2268,1.2218,1.2195,1.2176,1.2203,1.2171,1.2096,1.2082,1.2069,1.207,1.2201,1.2201,1.2254,1.2255,1.2255]}]]